Change the Weather History Date:

Monday, March 18, 2013

  Actual Average (KNYG) Record (KNYG)
Temperature  
Mean Temperature 34 °F -  
Max Temperature 36 °F 52 °F 79 °F (2011)
Min Temperature 32 °F 34 °F 28 °F (2005)
Degree Days  
Heating Degree Days 31    
Moisture  
Dew Point 34 °F    
Average Humidity 98    
Maximum Humidity 100    
Minimum Humidity 95    
Precipitation  
Precipitation 0.38 in - - ()
Sea Level Pressure  
Sea Level Pressure 30.21 in    
Wind  
Wind Speed 2 mph (NE)    
Max Wind Speed 12 mph    
Max Gust Speed -    
Visibility 3 miles    
Events Rain , Snow    
Averages and records for this station are not official NWS values.
T = Trace of Precipitation, MM = Missing Value Source: NWS Daily Summary

Daily Weather History Graph

Daily Weather History Graph

Search for Another Location

Airport or City:

Trip Planner

Search our weather history database for the weather conditions in past years. The results will help you decide how hot, cold, wet, or windy it might be!

Date:

Astronomy

Mar. 18, 2013 Rise Set
Actual Time 7:16 AM EDT 7:20 PM EDT
Civil Twilight 6:49 AM EDT 7:46 PM EDT
Nautical Twilight 6:18 AM EDT 8:17 PM EDT
Astronomical Twilight 5:47 AM EDT 8:48 PM EDT
Moon 11:18 AM EDT (3/18) 1:13 AM EDT (3/18)
Length of Visible Light 12h 56m
Length of Day
12h 04m
Waxing Crescent, 40% of the Moon is Illuminated
Mar 18
Waxing Crescent
Mar 19
First Quarter
Mar 27
Full
Apr 3
Last Quarter
Apr 10
New

Hourly Weather History & Observations

Time (EDT) Temp. Windchill Dew Point Humidity Pressure Visibility Wind Dir Wind Speed Gust Speed Precip Events Conditions
12:15 AM 34.7 °F - 34.7 °F 100% 30.33 in 2.0 mi Calm Calm - N/A Rain Rain
12:35 AM 34.7 °F - 34.7 °F 100% 30.33 in 1.8 mi Calm Calm - N/A Rain Light Rain
12:55 AM 34.7 °F - 34.7 °F 100% 30.33 in 1.8 mi Calm Calm - 0.01 in Rain Light Rain
1:15 AM 34.7 °F - 34.7 °F 100% 30.32 in 1.8 mi Calm Calm - N/A Rain Light Rain
1:35 AM 34.7 °F - 34.7 °F 100% 30.32 in 2.5 mi Calm Calm - N/A Rain Light Rain
2:15 AM 34.7 °F - 34.7 °F 100% 30.32 in 3.0 mi Calm Calm - 0.01 in Rain Rain
2:35 AM 34.7 °F - 34.7 °F 100% 30.32 in 2.5 mi Calm Calm - 0.01 in Rain Light Rain
2:55 AM 34.7 °F - 34.7 °F 100% 30.32 in 2.5 mi Calm Calm - 0.02 in Snow Light Snow
3:15 AM 34.7 °F 31.8 °F 34.5 °F 99% 30.32 in 3.0 mi ENE 3.5 mph - N/A Snow Light Snow
3:35 AM 34.0 °F 29.8 °F 33.1 °F 96% 30.32 in 2.5 mi ENE 4.6 mph - 0.01 in Snow Light Snow
3:55 AM 33.8 °F 29.6 °F 32.9 °F 96% 30.32 in 2.0 mi ENE 4.6 mph - 0.01 in Snow Light Snow
4:15 AM 33.4 °F 30.4 °F 32.9 °F 98% 30.31 in 3.0 mi ENE 3.5 mph - N/A Snow Light Snow
4:35 AM 33.4 °F 28.1 °F 32.9 °F 98% 30.31 in 3.0 mi ENE 5.8 mph - N/A Snow Light Snow
4:55 AM 33.3 °F 27.9 °F 32.9 °F 99% 30.31 in 2.5 mi ENE 5.8 mph - N/A Snow Light Snow
5:15 AM 33.3 °F - 32.9 °F 99% 30.32 in 1.5 mi Calm Calm - N/A Snow Light Snow
5:35 AM 33.3 °F - 32.9 °F 99% 30.33 in 1.5 mi Calm Calm - N/A Snow Light Snow
5:55 AM 33.1 °F - 32.9 °F 99% 30.33 in 1.8 mi Calm Calm - N/A Snow Light Snow
6:15 AM 33.1 °F 28.7 °F 32.9 °F 99% 30.35 in 2.5 mi ENE 4.6 mph - N/A Snow Light Snow
6:35 AM 33.1 °F 26.9 °F 32.9 °F 99% 30.35 in 1.8 mi East 6.9 mph - N/A Snow Light Snow
7:15 AM 33.1 °F 26.1 °F 32.5 °F 98% 30.35 in 2.0 mi East 8.1 mph - 0.01 in Snow Light Snow
7:35 AM 32.9 °F 27.5 °F 32.4 °F 98% 30.36 in 1.2 mi East 5.8 mph - 0.01 in Snow Light Snow
7:55 AM 33.1 °F 24.4 °F 32.4 °F 97% 30.36 in 2.0 mi East 11.5 mph - 0.01 in Snow Light Snow
8:15 AM 32.9 °F 28.5 °F 32.0 °F 96% 30.36 in 3.0 mi East 4.6 mph - N/A Snow Light Snow
8:35 AM 32.9 °F 26.7 °F 32.0 °F 96% 30.35 in 2.5 mi ENE 6.9 mph - N/A Snow Light Snow
8:55 AM 32.9 °F 26.7 °F 32.0 °F 96% 30.35 in 3.0 mi ENE 6.9 mph - N/A Snow Light Snow
9:15 AM 32.9 °F 26.7 °F 32.0 °F 96% 30.34 in 4.0 mi ENE 6.9 mph - N/A Snow Light Snow
9:35 AM 32.9 °F 28.5 °F 32.0 °F 96% 30.33 in 7.0 mi East 4.6 mph - N/A   Overcast
9:55 AM 32.9 °F 29.8 °F 32.0 °F 96% 30.33 in 4.0 mi ENE 3.5 mph - N/A   Overcast
10:15 AM 33.3 °F 28.9 °F 32.0 °F 95% 30.32 in 7.0 mi NE 4.6 mph - N/A   Overcast
10:35 AM 33.3 °F - 32.0 °F 95% 30.31 in 4.0 mi Calm Calm - N/A   Overcast
10:55 AM 33.4 °F 29.1 °F 32.4 °F 96% 30.31 in 3.0 mi ENE 4.6 mph - N/A   Overcast
11:15 AM 33.4 °F 29.1 °F 32.5 °F 96% 30.28 in 1.8 mi ENE 4.6 mph - N/A   Overcast
11:35 AM 33.6 °F 27.5 °F 32.9 °F 97% 30.26 in 1.5 mi East 6.9 mph - N/A   Overcast
11:55 AM 34.0 °F 27.2 °F 33.4 °F 98% 30.25 in 2.0 mi East 8.1 mph - N/A   Overcast
12:15 PM 34.3 °F 30.2 °F 33.6 °F 97% 30.25 in 2.5 mi ENE 4.6 mph - N/A   Overcast
12:35 PM 34.7 °F 31.8 °F 34.0 °F 97% 30.25 in 2.5 mi NE 3.5 mph - N/A   Overcast
12:55 PM 34.7 °F 30.6 °F 34.0 °F 97% 30.24 in 1.8 mi NE 4.6 mph - 0.03 in   Overcast
1:15 PM 34.7 °F - 34.2 °F 98% 30.23 in 1.5 mi Calm Calm - 0.02 in   Overcast
1:35 PM 34.7 °F - 34.2 °F 98% 30.22 in 1.5 mi Calm Calm - 0.04 in Rain Light Rain
1:55 PM 34.7 °F 30.6 °F 34.3 °F 99% 30.20 in 1.2 mi ENE 4.6 mph - 0.06 in   Drizzle
2:15 PM 34.9 °F 32.0 °F 34.7 °F 99% 30.18 in 1.2 mi ENE 3.5 mph - 0.01 in Rain Light Rain
2:35 PM 35.1 °F - 34.9 °F 99% 30.17 in 1.2 mi Calm Calm - 0.03 in Rain Rain
2:55 PM 35.4 °F - 35.1 °F 99% 30.15 in 1.5 mi Calm Calm - 0.05 in Rain Rain
3:15 PM 35.6 °F - 35.6 °F 100% 30.14 in 1.5 mi Calm Calm - 0.01 in Rain Light Rain
3:35 PM 36.0 °F - 35.8 °F 99% 30.12 in 2.0 mi Calm Calm - 0.01 in Snow Light Snow
3:55 PM 35.8 °F - 35.6 °F 99% 30.13 in 2.0 mi Calm Calm - 0.01 in Rain Light Rain
4:15 PM 36.1 °F - 36.0 °F 99% 30.11 in 1.2 mi Calm Calm - N/A Rain Rain
4:35 PM 36.1 °F 33.5 °F 36.0 °F 99% 30.11 in 1.0 mi WNW 3.5 mph - 0.01 in   Drizzle
4:55 PM 36.0 °F 32.1 °F 36.0 °F 100% 30.11 in 1.0 mi WNW 4.6 mph - 0.02 in Rain Heavy Rain
5:15 PM 36.3 °F 33.7 °F 36.3 °F 100% 30.10 in 1.0 mi NW 3.5 mph - N/A Rain Rain
5:35 PM 36.3 °F 31.6 °F 36.3 °F 100% 30.09 in 2.0 mi WNW 5.8 mph - 0.01 in   Drizzle
5:55 PM 35.6 °F 29.9 °F 35.6 °F 100% 30.08 in 1.5 mi NNW 6.9 mph - 0.01 in   Drizzle
6:15 PM 35.6 °F 30.7 °F 35.6 °F 100% 30.08 in 1.5 mi WNW 5.8 mph - 0.01 in Rain Rain
6:35 PM 35.4 °F 32.6 °F 35.2 °F 99% 30.06 in 1.8 mi NNW 3.5 mph - 0.03 in Rain Rain
6:55 PM 35.2 °F 31.2 °F 35.1 °F 99% 30.07 in 3.0 mi WNW 4.6 mph - 0.04 in Rain Rain
7:15 PM 35.1 °F - 34.9 °F 99% 30.03 in 1.8 mi Calm Calm - 0.04 in   Overcast
7:35 PM 34.7 °F - 34.7 °F 100% 30.04 in 4.0 mi Calm Calm - 0.07 in Rain Rain
8:15 PM 34.9 °F - 34.7 °F 99% 30.02 in 10.0 mi Calm Calm - 0.01 in   Drizzle
8:35 PM 34.7 °F - 34.7 °F 100% 30.01 in 4.0 mi Calm Calm - 0.02 in Rain Light Rain
8:55 PM 34.7 °F 31.8 °F 34.7 °F 100% 30.01 in 10.0 mi WNW 3.5 mph - 0.02 in   Light Drizzle
9:15 PM 34.7 °F 30.6 °F 34.7 °F 100% 30.01 in 10.0 mi WNW 4.6 mph - N/A   Overcast
9:35 PM 34.7 °F 29.6 °F 34.5 °F 99% 30.01 in 10.0 mi WNW 5.8 mph - N/A Rain Rain
9:55 PM 34.7 °F 31.8 °F 34.3 °F 99% 29.99 in 3.0 mi NW 3.5 mph - 0.01 in Rain Rain
10:15 PM 34.7 °F - 34.3 °F 99% 29.97 in 5.0 mi Calm Calm - N/A Rain Light Rain
10:35 PM 34.7 °F - 34.3 °F 99% 29.95 in 10.0 mi Calm Calm - 0.01 in Rain Rain
10:55 PM 34.7 °F - 34.7 °F 100% 29.95 in 10.0 mi Calm Calm - 0.01 in   Overcast
11:15 PM 34.7 °F 31.8 °F 34.7 °F 100% 29.95 in 10.0 mi WNW 3.5 mph - N/A   Light Drizzle
11:55 PM 34.7 °F 31.8 °F 34.7 °F 100% 29.94 in 10.0 mi West 3.5 mph - N/A   Overcast